Weather History for Hof Plauen, Germany

Change the Weather History Date:

Sunday, February 10, 2013

  Actual Average Record
Temperature  
Mean Temperature 18 °F -  
Max Temperature 27 °F 35 °F 48 °F (2008)
Min Temperature 10 °F 27 °F 3 °F (2012)
Degree Days  
Heating Degree Days 46    
Moisture  
Dew Point 16 °F    
Average Humidity 83    
Maximum Humidity 100    
Minimum Humidity 54    
Precipitation  
Precipitation 0.00 in - - ()
Sea Level Pressure  
Sea Level Pressure 29.94 in    
Wind  
Wind Speed 2 mph ()    
Max Wind Speed 7 mph    
Max Gust Speed -    
Visibility 4.2 miles    
Events Fog , Snow    
Averages and records for this station are not official NWS values.
T = Trace of Precipitation, MM = Missing Value Source: Averaged Metar Reports

Daily Weather History Graph

Daily Weather History Graph

Search for Another Location

Airport:

Trip Planner

Search our weather history database for the weather conditions in past years. The results will help you decide how hot, cold, wet, or windy it might be!

Date:

Astronomy

Feb. 10, 2013 Rise Set
Actual Time 7:32 AM CET 5:21 PM CET
Civil Twilight 6:58 AM CET 5:55 PM CET
Nautical Twilight 6:20 AM CET 6:34 PM CET
Astronomical Twilight 5:42 AM CET 7:12 PM CET
Moon 7:06 AM CET (2/10) 6:02 PM CET (2/10)
Length of Visible Light 10h 57m
Length of Day
9h 49m
New Moon, 0% of the Moon is Illuminated
Feb 10
New Moon
Feb 17
First Quarter
Feb 25
Full
Mar 4
Last Quarter
Mar 11
New

Hourly Weather History & Observations

Time (CET) Temp. Windchill Dew Point Humidity Pressure Visibility Wind Dir Wind Speed Gust Speed Precip Events Conditions
12:00 AM 23 °F - 22 °F 93% 30.10 in 2 mi West 2.2 mph - - Snow Light Snow
12:20 AM 23.0 °F - 19.4 °F 86% 29.98 in 1.1 mi Variable 2.3 mph - N/A Snow Light Snow
12:50 AM 23.0 °F - 19.4 °F 86% 29.98 in 0.9 mi South 1.2 mph - N/A Snow Snow
1:00 AM 23 °F - 22 °F 94% 30.09 in 2 mi WNW 2.2 mph - - Snow Light Snow
1:20 AM 23.0 °F - 19.4 °F 86% 29.98 in 1.4 mi Variable 1.2 mph - N/A Snow Light Snow
1:50 AM 23.0 °F - 19.4 °F 86% 29.95 in 1.2 mi West 2.3 mph - N/A Snow Light Snow
2:00 AM 23 °F - 22 °F 94% 30.09 in 2 mi NW 2.2 mph - - Snow Snow Grains
2:20 AM 23.0 °F - 19.4 °F 86% 29.95 in - Variable 2.3 mph - N/A Snow Light Snow
2:50 AM 23.0 °F - 19.4 °F 86% 29.95 in - Variable 2.3 mph - N/A Snow Light Snow
3:00 AM 22 °F - 21 °F 95% 30.09 in 1 mi NW 2.2 mph - - Snow Light Snow
3:20 AM 21.2 °F - 19.4 °F 93% 29.95 in - Calm Calm - N/A Snow Light Snow
3:50 AM 19.4 °F - 15.8 °F 86% 29.95 in 1.4 mi Calm Calm - N/A   Overcast
4:20 AM 21.2 °F - 19.4 °F 93% 29.95 in - West 2.3 mph - N/A   Overcast
4:50 AM 21.2 °F - 19.4 °F 93% 29.95 in - Calm Calm - N/A   Mist
5:00 AM 21 °F - 21 °F 99% 30.08 in 1 mi WSW 2.2 mph - -   Mist
5:20 AM 21.2 °F - 17.6 °F 86% 29.95 in 0.5 mi Calm Calm - N/A   Overcast
5:50 AM 19.4 °F - 17.6 °F 93% 29.95 in 0.2 mi Variable 1.2 mph - N/A Fog Patches of Fog
6:00 AM 20 °F - 19 °F 94% 30.08 in 0 mi SE 2.2 mph - - Fog Heavy Fog
6:20 AM 19.4 °F 14.3 °F 17.6 °F 93% 29.95 in 0.7 mi SSW 3.5 mph - N/A Fog Light Freezing Fog
6:50 AM 19.4 °F 12.8 °F 15.8 °F 86% 29.95 in 0.1 mi SSW 4.6 mph - N/A Fog Light Freezing Fog
7:00 AM 19 °F - 19 °F 98% 30.09 in 0 mi South 4.5 mph - - Fog Heavy Fog
7:20 AM 19.4 °F 14.3 °F 15.8 °F 86% 29.95 in 0.1 mi SSW 3.5 mph - N/A Fog Light Freezing Fog
7:50 AM 17.6 °F - 15.8 °F 93% 29.95 in 0.1 mi South 2.3 mph - N/A Fog Light Freezing Fog
8:00 AM 18 °F - 18 °F 99% 30.09 in 0 mi South 4.5 mph - - Fog Heavy Fog
8:20 AM 17.6 °F 12.3 °F 15.8 °F 93% 29.95 in 0.1 mi South 3.5 mph - N/A Fog Light Freezing Fog
8:50 AM 17.6 °F 12.3 °F 14.0 °F 86% 29.95 in 0.2 mi SSW 3.5 mph - N/A Fog Light Freezing Fog
9:00 AM 17 °F - 17 °F 97% 30.10 in 0 mi SSW 2.2 mph - - Fog Heavy Fog
9:20 AM 17.6 °F - 15.8 °F 93% 29.95 in 0.2 mi Variable 2.3 mph - N/A Fog Light Freezing Fog
9:50 AM 19.4 °F - 15.8 °F 86% 29.95 in 0.1 mi SSW 2.3 mph - N/A Fog Light Freezing Fog
10:20 AM 19.4 °F - 15.8 °F 86% 29.95 in 0.1 mi Variable 2.3 mph - N/A Fog Light Freezing Fog
10:50 AM 21.2 °F - 17.6 °F 86% 29.95 in 0.3 mi Variable 1.2 mph - N/A Fog Light Freezing Fog
11:00 AM 19 °F - 19 °F 98% 30.09 in 0 mi SSE 4.5 mph - - Fog Heavy Fog
11:20 AM 21.2 °F - 19.4 °F 93% 29.95 in 0.9 mi SSW 1.2 mph - N/A   Mostly Cloudy
11:50 AM 23.0 °F - 19.4 °F 86% 29.92 in 3.1 mi Calm Calm - N/A   Scattered Clouds
12:00 PM 25 °F - 25 °F 100% 30.04 in 2 mi South 2.2 mph - - Fog Light Fog
12:20 PM 24.8 °F - 21.2 °F 86% 29.92 in 4.3 mi Calm Calm - N/A   Partly Cloudy
12:50 PM 26.6 °F - 17.6 °F 69% 29.92 in 6.2 mi Calm Calm - N/A   Partly Cloudy
1:00 PM 25 °F - 22 °F 82% 30.03 in 11 mi SSE 2.2 mph - -   Partly Cloudy
1:20 PM 26.6 °F - 17.6 °F 69% 29.89 in 6.2 mi Calm Calm - N/A   Partly Cloudy
1:50 PM 24.8 °F 20.5 °F 17.6 °F 74% 29.89 in 6.2 mi South 3.5 mph - N/A   Partly Cloudy
2:00 PM 26 °F - 18 °F 62% 30.00 in 17 mi SSE 6.7 mph - -   Scattered Clouds
2:20 PM 24.8 °F - 15.8 °F 69% 29.89 in 6.2 mi Variable 2.3 mph - N/A   Scattered Clouds
2:50 PM 24.8 °F 19.1 °F 14.0 °F 64% 29.86 in 6.2 mi SSE 4.6 mph - N/A   Scattered Clouds
3:00 PM 25 °F - 15 °F 55% 29.99 in 25 mi South 4.5 mph - -   Mostly Cloudy
3:20 PM 24.8 °F 17.9 °F 12.2 °F 59% 29.86 in 6.2 mi SSE 5.8 mph - N/A   Partly Cloudy
3:50 PM 24.8 °F 20.5 °F 10.4 °F 54% 29.86 in 6.2 mi South 3.5 mph - N/A   Partly Cloudy
4:20 PM 26.6 °F 21.2 °F 14.0 °F 59% 29.86 in 6.2 mi SSE 4.6 mph - N/A   Scattered Clouds
5:00 PM 26 °F - 17 °F 59% 29.95 in 22 mi SE 6.7 mph - -   Mostly Cloudy
5:20 PM 23.0 °F 17.0 °F 14.0 °F 68% 29.83 in 6.2 mi SSE 4.6 mph - N/A   Scattered Clouds
5:50 PM 23.0 °F 14.7 °F 15.8 °F 74% 29.83 in 6.2 mi ESE 6.9 mph - N/A   Scattered Clouds
6:00 PM 24 °F - 16 °F 61% 29.96 in 19 mi SE 4.5 mph - -   Mostly Cloudy
6:20 PM 17.6 °F 9.3 °F 8.6 °F 68% 29.83 in 6.2 mi ESE 5.8 mph - N/A   Scattered Clouds
6:50 PM 15.8 °F 8.6 °F 8.6 °F 73% 29.83 in 6.2 mi ESE 4.6 mph - N/A   Scattered Clouds
7:00 PM 20 °F - 15 °F 72% 29.96 in 16 mi SE 4.5 mph - -   Clear
7:20 PM 15.8 °F 10.2 °F 10.4 °F 79% 29.83 in 6.2 mi East 3.5 mph - N/A   Unknown
7:50 PM 15.8 °F 10.2 °F 12.2 °F 86% 29.80 in 6.2 mi ESE 3.5 mph - N/A   Unknown
8:00 PM 17 °F - 14 °F 83% 29.96 in 12 mi SSE 2.2 mph - -   Clear
8:20 PM 14.0 °F 6.5 °F 10.4 °F 86% 29.80 in 4.3 mi East 4.6 mph - N/A   Unknown
8:50 PM 14.0 °F 8.2 °F 10.4 °F 86% 29.80 in 6.2 mi East 3.5 mph - N/A   Unknown
9:00 PM 16 °F - 13 °F 81% 29.96 in 12 mi East 2.2 mph - -   Clear
9:20 PM 14.0 °F 8.2 °F 10.4 °F 86% 29.80 in 5.6 mi East 3.5 mph - N/A   Unknown
9:50 PM 14.0 °F 8.2 °F 10.4 °F 86% 29.77 in 5.6 mi ENE 3.5 mph - N/A   Unknown
10:20 PM 14.0 °F 8.2 °F 10.4 °F 86% 29.77 in 5.6 mi East 3.5 mph - N/A   Unknown
10:50 PM 10.4 °F 0.8 °F 6.8 °F 85% 29.77 in 6.2 mi East 5.8 mph - N/A   Unknown
11:00 PM 14 °F - 12 °F 88% 29.93 in 4 mi ESE 4.5 mph - -   Mist
11:20 PM 14.0 °F 5.1 °F 8.6 °F 79% 29.77 in 6.2 mi ESE 5.8 mph - N/A   Unknown
11:50 PM 14.0 °F 6.5 °F 10.4 °F 86% 29.74 in 6.2 mi East 4.6 mph - N/A   Unknown